User: anonymous   Login
Location: Mentone
(34.5413°N, 85.5351°W)
Time: 11:12:20
(UTC-06:00)
Language:

Centaur AC-72 - Orbit

View from above orbital plane
View from above orbital plane
View from above satellite
View from above satellite

Ground track
Ground track

The orbit data is extracted from the following two-line orbital elements,

1 21907U 92013B   16044.21409279 -.00000177  00000-0  00000+0 0  9998
2 21907  19.5779  64.8528 6953596 228.0655 236.1184  2.25610362197226
Epoch (UTC): 13 February 2016 05:08:17
Eccentricity: 0.6953596
inclination: 19.5779°
perigee height: 1102 km
apogee height: 35253 km
right ascension of ascending node: 64.8528°
argument of perigee: 228.0655°
revolutions per day: 2.25610362
mean anomaly at epoch: 236.1184°
orbit number at epoch: 19722

The dashed part of the orbit path shows where the satellite is in the earth's shadow,  

DLR